Location: Newark
(44.3248°N, 23.7839°E)
Time: 18:27:57
(UTC+00:00)

NANOSAT C BR1 - Visible Passes

Search period start: 22 April 2024 00:00
Search period end: 02 May 2024 00:00
Orbit: 556 x 566 km, 98.1° (Epoch: 21 April)

Date Brightness Start Highest point End Pass type
(mag) Time Alt. Az. Time Alt. Az. Time Alt. Az.
22 Apr ? 02:17:44 10° NNE 02:21:48 82° ESE 02:25:49 10° SSW visible
23 Apr ? 02:16:51 10° NNE 02:20:54 79° ESE 02:24:56 10° S visible
24 Apr ? 02:15:56 10° NNE 02:19:58 77° ESE 02:24:00 10° S visible
25 Apr ? 02:14:57 10° NNE 02:19:00 75° ESE 02:23:01 10° S visible
26 Apr ? 02:13:56 10° NNE 02:17:58 72° ESE 02:21:59 10° S visible
27 Apr ? 02:12:52 10° NNE 02:16:55 70° ESE 02:20:55 10° S visible
28 Apr ? 02:11:46 10° NNE 02:15:48 67° ESE 02:19:47 10° S visible
29 Apr ? 02:10:37 10° NNE 02:14:38 65° ESE 02:18:38 10° S visible
30 Apr ? 02:09:26 10° NNE 02:13:26 62° ESE 02:17:25 10° S visible
01 May ? 02:08:11 10° NNE 02:12:11 60° E 02:16:09 10° S visible
